This is the latest recevied weather packets stored in our database for station/object VK6DC-13. If no packets are shown the sender has not sent any weather packets the latest 10 day(s).
| Time | Temp. | Humidity | Pressure | Rain* | Wind** | Luminosity | Snow |
|---|---|---|---|---|---|---|---|
| 1787749228 | 11.11° C | 98% | 1019.9 hPa | 0.51 mm | - | 0 W/m² | - |
| 1787748625 | 11.67° C | 98% | 1019.9 hPa | 0.76 mm | - | 0 W/m² | - |
| 1787748022 | 11.67° C | 98% | 1019.8 hPa | 1.02 mm | - | 0 W/m² | - |
| 1787747419 | 11.67° C | 98% | 1019.8 hPa | 1.02 mm | - | 0 W/m² | - |
| 1787746816 | 12.22° C | 98% | 1019.5 hPa | 1.02 mm | - | 0 W/m² | - |
| 1787746234 | 12.22° C | 98% | 1019.5 hPa | 1.02 mm | - | 0 W/m² | - |
| 1787745631 | 12.22° C | 98% | 1019.4 hPa | 0.76 mm | - | 0 W/m² | - |
| 1787745028 | 12.22° C | 98% | 1019.3 hPa | 0.51 mm | - | 0 W/m² | - |
| 1787744425 | 12.22° C | 98% | 1019.2 hPa | 0.51 mm | - | 0 W/m² | - |
| 1787743822 | 12.22° C | 98% | 1019.1 hPa | 0.25 mm | - | 0 W/m² | - |
| 1787743220 | 13.33° C | 98% | 1018.9 hPa | 0.51 mm | - | 0 W/m² | - |
| 1787742617 | 14.44° C | 98% | 1018.7 hPa | 0.25 mm | - | 0 W/m² | - |
| 1787742035 | 14.44° C | 98% | 1018.6 hPa | 0.25 mm | - | 0 W/m² | - |
| 1787741433 | 14.44° C | 98% | 1018.5 hPa | 0.51 mm | - | 0 W/m² | - |
| 1787740830 | 13.89° C | 98% | 1018.2 hPa | 0.51 mm | - | 0 W/m² | - |
| 1787740227 | 13.89° C | 98% | 1018.2 hPa | 1.27 mm | - | 0 W/m² | - |
| 1787739624 | 14.44° C | 98% | 1018 hPa | 1.78 mm | - | 0 W/m² | - |
| 1787739021 | 14.44° C | 98% | 1018 hPa | 2.03 mm | - | 0 W/m² | - |
| 1787738418 | 14.44° C | 98% | 1017.6 hPa | 2.29 mm | - | 1 W/m² | - |
| 1787737816 | 14.44° C | 98% | 1017.2 hPa | 2.29 mm | - | 3 W/m² | - |
| 1787737233 | 14.44° C | 98% | 1017.1 hPa | 2.79 mm | - | 3 W/m² | - |
| 1787736631 | 14.44° C | 98% | 1017.2 hPa | 3.3 mm | - | 6 W/m² | - |
| 1787736028 | 14.44° C | 98% | 1017.1 hPa | 3.3 mm | - | 7 W/m² | - |
| 1787735425 | 14.44° C | 98% | 1017.3 hPa | 3.81 mm | - | 11 W/m² | - |
| 1787734822 | 14.44° C | 98% | 1017.5 hPa | 5.08 mm | - | 14 W/m² | - |
* Rain latest hour (hover to see other rain measurements)
** Current wind speed in m/s (hover to see current wind gust speed)